Dublin, Ireland

6:39 AM GMT on November 18, 2017 (GMT +0000)
Dublin International

Weather History for EIDW - April, 2014

Change the Weather History Date:

Wednesday, April 23, 2014

  Actual Average Record
Temperature  
Mean Temperature 54 °F -  
Max Temperature 60 °F 57 °F 66 °F (2002)
Min Temperature 47 °F 43 °F 30 °F (2016)
Degree Days  
Heating Degree Days 12    
Growing Degree Days 4 (Base 50)    
Moisture  
Dew Point 45 °F    
Average Humidity 74    
Maximum Humidity 100    
Minimum Humidity 41    
Precipitation  
Precipitation 0.12 in 0.07 in - ()
Sea Level Pressure  
Sea Level Pressure 29.83 in    
Wind  
Wind Speed 11 mph ()    
Max Wind Speed 22 mph    
Max Gust Speed 23 mph    
Visibility 6.2 miles    
Events Rain    
Averages and records for this station are not official NWS values.
T = Trace of Precipitation, MM = Missing Value Source: Averaged Metar Reports

Daily Weather History Graph

Daily Weather History Graph

Search for Another Location

Airport or City:

Trip Planner

Search our weather history database for the weather conditions in past years. The results will help you decide how hot, cold, wet, or windy it might be!

Date:

Astronomy

Apr. 23, 2014 Rise Set
Actual Time 6:07 AM IST 8:40 PM IST
Civil Twilight 5:29 AM IST 9:19 PM IST
Nautical Twilight 4:39 AM IST 10:09 PM IST
Astronomical Twilight 3:39 AM IST 11:10 PM IST
Moon 3:24 AM IST (4/23) 1:41 PM IST (4/23)
Length of Visible Light 15h 49m
Length of Day
14h 32m
Last Quarter, 37% of the Moon is Illuminated
Apr 23
Last Quarter
Apr 29
New
May 7
First Quarter
May 14
Full
May 21
Last Quarter

Hourly Weather History & Observations

Time (IST) Temp. Dew Point Humidity Pressure Visibility Wind Dir Wind Speed Gust Speed Precip Events Conditions
12:00 AM 50 °F 48 °F 92% 29.76 in 6 mi SE 8.9 mph - - Rain Light Rain
12:00 AM 50.0 °F 48.2 °F 94% 29.74 in 6.2 mi SE 10.4 mph - N/A   Mostly Cloudy
12:30 AM 50.0 °F 48.2 °F 94% 29.74 in 6.2 mi SSE 10.4 mph - N/A   Mostly Cloudy
1:00 AM 50 °F 46 °F 81% 29.77 in 6 mi SSE 8.9 mph - - Rain Light Rain
1:00 AM 50.0 °F 46.4 °F 87% 29.74 in 6.2 mi SSE 9.2 mph - N/A   Scattered Clouds
1:30 AM 50.0 °F 44.6 °F 82% 29.77 in 6.2 mi South 6.9 mph - N/A   Scattered Clouds
2:00 AM 48 °F 45 °F 84% 29.78 in 12 mi SE 6.7 mph - -   Scattered Clouds
2:00 AM 48.2 °F 44.6 °F 87% 29.77 in 6.2 mi SE 6.9 mph - N/A   Mostly Cloudy
2:30 AM 48.2 °F 44.6 °F 87% 29.77 in 6.2 mi SE 9.2 mph - N/A   Mostly Cloudy
3:00 AM 49 °F 45 °F 83% 29.77 in 9 mi SSE 11.2 mph - -   Scattered Clouds
3:00 AM 48.2 °F 44.6 °F 87% 29.74 in 6.2 mi SSE 9.2 mph - N/A   Mostly Cloudy
3:30 AM 48.2 °F 46.4 °F 93% 29.74 in 6.2 mi SE 15.0 mph - N/A   Mostly Cloudy
4:00 AM 49 °F 47 °F 92% 29.77 in 6 mi SE 13.4 mph - -   Mist
4:00 AM 48.2 °F 48.2 °F 100% 29.74 in 6.2 mi ESE 12.7 mph - N/A   Mostly Cloudy
4:30 AM 50.0 °F 48.2 °F 94% 29.74 in 4.3 mi SE 13.8 mph - N/A   Mostly Cloudy
5:00 AM 49 °F 48 °F 96% 29.76 in 3 mi SE 15.7 mph - - Rain Light Drizzle
5:00 AM 48.2 °F 48.2 °F 100% 29.74 in 3.1 mi SE 15.0 mph - N/A   Mostly Cloudy
5:30 AM 50.0 °F 48.2 °F 94% 29.74 in 4.3 mi SE 15.0 mph - N/A   Mostly Cloudy
6:00 AM 49 °F 48 °F 97% 29.75 in 6 mi SE 17.9 mph - - Rain Light Rain
6:30 AM 50.0 °F 48.2 °F 94% 29.74 in 5.0 mi SE 19.6 mph - N/A   Light Drizzle
7:00 AM 50 °F 49 °F 93% 29.76 in 3 mi SE 17.9 mph - - Rain Light Rain
7:00 AM 50.0 °F 48.2 °F 94% 29.74 in 3.1 mi SE 20.7 mph - N/A   Mostly Cloudy
7:30 AM 50.0 °F 48.2 °F 94% 29.74 in 6.2 mi SE 21.9 mph - N/A   Mostly Cloudy
8:00 AM 50 °F 49 °F 94% 29.77 in 5 mi SE 17.9 mph - - Rain Light Rain
8:00 AM 50.0 °F 48.2 °F 94% 29.74 in 5.0 mi SE 16.1 mph - N/A Rain Light Rain
8:30 AM 50.0 °F 50.0 °F 100% 29.77 in 5.0 mi SSE 19.6 mph - N/A Rain Light Rain
9:00 AM 51 °F 49 °F 92% 29.78 in 6 mi SSE 17.9 mph - - Rain Light Rain
9:00 AM 50.0 °F 50.0 °F 100% 29.77 in 5.6 mi SSE 19.6 mph - N/A Rain Light Rain
9:30 AM 51.8 °F 50.0 °F 94% 29.77 in 6.2 mi South 10.4 mph - N/A   Mostly Cloudy
10:00 AM 54 °F 46 °F 68% 29.81 in 9 mi SSW 11.2 mph - - Rain Light Rain
10:00 AM 53.6 °F 46.4 °F 77% 29.80 in 6.2 mi SSW 12.7 mph - N/A   Mostly Cloudy
10:30 AM 53.6 °F 46.4 °F 77% 29.80 in 6.2 mi SSW 11.5 mph - N/A   Mostly Cloudy
11:00 AM 56 °F 46 °F 61% 29.83 in 16 mi SSW 13.4 mph - -   Partly Cloudy
11:00 AM 55.4 °F 46.4 °F 72% 29.83 in 6.2 mi SSW 13.8 mph - N/A   Mostly Cloudy
11:30 AM 57.2 °F 44.6 °F 63% 29.83 in 6.2 mi South 12.7 mph - N/A   Scattered Clouds
12:00 PM 58 °F 44 °F 48% 29.84 in 31 mi SSW 15.7 mph - -   Partly Cloudy
12:00 PM 57.2 °F 44.6 °F 63% 29.83 in 6.2 mi SSW 15.0 mph - N/A   Scattered Clouds
12:30 PM 59.0 °F 42.8 °F 55% 29.83 in 6.2 mi SSW 16.1 mph - N/A   Scattered Clouds
1:00 PM 59 °F 43 °F 44% 29.85 in 37 mi SSW 13.4 mph - -   Partly Cloudy
1:00 PM 59.0 °F 42.8 °F 55% 29.83 in 6.2 mi SSW 11.5 mph - N/A   Scattered Clouds
1:30 PM 60.8 °F 42.8 °F 52% 29.86 in 6.2 mi SSW 8.1 mph - N/A   Scattered Clouds
2:00 PM 58 °F 46 °F 55% 29.86 in 25 mi ESE 13.4 mph - -   Mostly Cloudy
2:00 PM 59.0 °F 41.0 °F 51% 29.86 in 6.2 mi ESE 13.8 mph - N/A   Scattered Clouds
2:30 PM 57.2 °F 48.2 °F 72% 29.86 in 6.2 mi SE 13.8 mph - N/A   Scattered Clouds
3:00 PM 56 °F 49 °F 70% 29.87 in 25 mi ESE 13.4 mph - - Rain Light Rain Showers
3:00 PM 55.4 °F 48.2 °F 77% 29.86 in 6.2 mi ESE 13.8 mph - N/A   Mostly Cloudy
3:30 PM 55.4 °F 50.0 °F 82% 29.86 in 6.2 mi SE 16.1 mph - N/A   Mostly Cloudy
4:00 PM 59 °F 47 °F 56% 29.86 in 22 mi SE 13.4 mph - - Rain Light Rain Showers
4:00 PM 59.0 °F 46.4 °F 63% 29.86 in 6.2 mi SE 11.5 mph 23.0 mph N/A Rain Light Rain Showers
4:30 PM 59.0 °F 41.0 °F 51% 29.86 in 6.2 mi SSE 16.1 mph - N/A   Mostly Cloudy
5:00 PM 60 °F 42 °F 41% 29.87 in 31 mi South 15.7 mph - -   Partly Cloudy
5:00 PM 60.8 °F 42.8 °F 52% 29.86 in 6.2 mi South 16.1 mph - N/A   Mostly Cloudy
5:30 PM 59.0 °F 41.0 °F 51% 29.86 in 6.2 mi South 15.0 mph - N/A   Mostly Cloudy
6:00 PM 58 °F 41 °F 41% 29.88 in 31 mi SSW 15.7 mph - -   Partly Cloudy
6:00 PM 57.2 °F 41.0 °F 55% 29.86 in 6.2 mi SSW 13.8 mph - N/A   Mostly Cloudy
6:30 PM 57.2 °F 41.0 °F 55% 29.86 in 6.2 mi SSW 15.0 mph - N/A   Scattered Clouds
7:00 PM 58 °F 42 °F 44% 29.89 in 37 mi SSW 15.7 mph - -   Partly Cloudy
7:00 PM 57.2 °F 42.8 °F 59% 29.89 in 6.2 mi SSW 15.0 mph - N/A   Scattered Clouds
7:30 PM 55.4 °F 41.0 °F 58% 29.89 in 6.2 mi SW 17.3 mph - N/A   Scattered Clouds
8:00 PM 54 °F 41 °F 51% 29.92 in 37 mi SW 13.4 mph - -   Scattered Clouds
8:00 PM 55.4 °F 41.0 °F 58% 29.92 in 6.2 mi SW 15.0 mph - N/A   Scattered Clouds
8:30 PM 53.6 °F 41.0 °F 62% 29.92 in 6.2 mi South 9.2 mph - N/A   Scattered Clouds
9:00 PM 51.8 °F 41.0 °F 67% 29.95 in 6.2 mi South 10.4 mph - N/A   Partly Cloudy
9:30 PM 51.8 °F 41.0 °F 67% 29.95 in 6.2 mi South 5.8 mph - N/A   Partly Cloudy
10:00 PM 50 °F 41 °F 62% 29.97 in 31 mi South 6.7 mph - -   Scattered Clouds
10:00 PM 50.0 °F 41.0 °F 71% 29.95 in 6.2 mi SSE 6.9 mph - N/A   Partly Cloudy
10:30 PM 48.2 °F 41.0 °F 76% 29.95 in 6.2 mi SSE 4.6 mph - N/A   Partly Cloudy
11:00 PM 48 °F 40 °F 64% 29.99 in 31 mi SE 4.5 mph - -   Scattered Clouds
11:00 PM 48.2 °F 39.2 °F 71% 29.98 in 6.2 mi SE 4.6 mph - N/A   Partly Cloudy
11:30 PM 48.2 °F 39.2 °F 71% 29.98 in 6.2 mi SE 6.9 mph - N/A   Partly Cloudy